We konden geen weer-waarchuwingen ophalen. Ga rechtstreeks naar de Meteoalarm site : www.meteoalarm.eu en controleer daar .



Onweer radar Meer informatie blitzortung!


Regen radar Meer informatie rain snow radar


Bezoek onze andere website:

Template documentation
and downloads

And another site



15 daagse weersverwachting Köniz (CH)

  • Overzicht
  • Per uur
  • 15 dagen
  • Extra
  • Vergelijk
  • Kaarten
  • Dagkaart
  • Meer »
  • Info
  • Statistieken
  • Directe link
    Temp 6h Neerslag Wind  
 06:32     20:37    Daglengte: 14:05 Vandaag
14:00
26°
 
2
20:00
20°
6.7 mm
2
 06:33     20:35    Daglengte: 14:02 Morgen
02:00
17°
11.3 mm
1
08:00
17°
 
1
14:00
22°
6.6 mm
2
20:00
19°
11.2 mm
1
 06:35     20:34    Daglengte: 13:59 Vrijdag 19 Aug
02:00
17°
17.3 mm
1
08:00
16°
25.9 mm
1
14:00
21°
51.7 mm
2
20:00
20°
29.4 mm
2
 06:36     20:32    Daglengte: 13:56 Zaterdag 20 Aug
02:00
15°
15.0 mm
2
08:00
15°
 
1
Locatie info
Region: Bern-Mittelland
Latitude: 46.9229°N
Longitude: 7.4143°E
577 masl
Postcode: 3098
Temp/Neerslag /Baro Onweer/Dauwpunt
    Temp Baro 1h Neerslag Dauwpunt Wind UV Bewolking  
 06:32     20:37    Daglengte: 14:05 Vandaag
13:00
25°
1011.3 hPa   14.3°
1
Windvlaag: -0.4 m/s
50%
14:00
26°
1010.9 hPa
41%
13.9°
2
Windvlaag: -1.4 m/s
51%
15:00
26°
1010.6 hPa
46%
15.1°
1
Windvlaag: -1.4 m/s
55%
16:00
26°
1010.3 hPa 2.2 mm
77%
13.5°
2
Windvlaag: -1.3 m/s
69%
17:00
25°
1010.5 hPa 2.2 mm
82%
13.1°
2
Windvlaag: -0.3 m/s
59%
18:00
23°
1010.8 hPa 2.4 mm
80%
11.2°
2
Windvlaag: 4.4 m/s
65%
19:00
22°
1010.6 hPa
82%
13.0°
2
Windvlaag: 5.3 m/s
79%
20:00
20°
1010.8 hPa
82%
14.1°
2
Windvlaag: 5.5 m/s
82%
21:00
19°
1011.9 hPa 3.1 mm
82%
15.5°
2
Windvlaag: 5.5 m/s
84% warningclass
22:00
19°
1012.6 hPa 4.5 mm
82%
15.7°
2
Windvlaag: 4.9 m/s
86%
23:00
18°
1013.4 hPa 3.7 mm
82%
15.4°
2
Windvlaag: 5.6 m/s
72%
 06:33     20:35    Daglengte: 14:02 Morgen
00:00
18°
1013.6 hPa
41%
15.4°
1
Windvlaag: 3.2 m/s
82%
01:00
17°
1013.2 hPa
73%
15.4°
1
Windvlaag: 0.9 m/s
73%
02:00
17°
1012.9 hPa
31%
15.4°
1
Windvlaag: 1.5 m/s
59%
03:00
17°
1012.3 hPa
23%
15.3°
1
Windvlaag: 1.5 m/s
57%
04:00
17°
1012.0 hPa
32%
15.2°
1
Windvlaag: 1 m/s
66%
05:00
17°
1011.6 hPa
74%
15.1°
1
Windvlaag: 1.2 m/s
76%
06:00
17°
1011.3 hPa
77%
14.8°
1
Windvlaag: 1.2 m/s
81%
07:00
17°
1011.7 hPa
71%
14.6°
1
Windvlaag: 1.1 m/s
78%
08:00
17°
1011.9 hPa
26%
14.9°
1
Windvlaag: 1 m/s
65%
09:00
18°
1012.0 hPa
74%
15.6°
1
Windvlaag: 2.1 m/s
59%
10:00
19°
1012.1 hPa
79%
16.2°
1
Windvlaag: 0.4 m/s
72%
11:00
20°
1012.3 hPa 2.2 mm
79%
15.1°
1
Windvlaag: 1 m/s
64%
12:00
20°
1012.2 hPa 2.2 mm
80%
14.6°
1
Windvlaag: -1.3 m/s
65%
13:00
21°
1011.9 hPa 2.2 mm
82%
14.8°
1
Windvlaag: -1.9 m/s
66%
14:00
22°
1011.3 hPa
82%
14.1°
2
Windvlaag: -2.6 m/s
54%
15:00
23°
1010.9 hPa
82%
13.8°
1
Windvlaag: -2.8 m/s
67%
16:00
23°
1010.6 hPa
82%
14.2°
1
Windvlaag: -3.2 m/s
78%
17:00
22°
1010.3 hPa
82%
13.9°
1
Windvlaag: -3.3 m/s
52%
18:00
21°
1010.4 hPa 3.8 mm
82%
14.0°
2
Windvlaag: -3 m/s
67% warningclass
19:00
20°
1010.9 hPa 4.2 mm
82%
15.2°
2
Windvlaag: -2.4 m/s
77%
20:00
19°
1011.1 hPa 3.1 mm
81%
16.2°
1
Windvlaag: 3.5 m/s
81%
21:00
19°
1011.7 hPa 3.8 mm
80%
16.7°
1
Windvlaag: 3.1 m/s
73%
22:00
18°
1012.0 hPa 3.7 mm
77%
16.2°
1
Windvlaag: 3.3 m/s
84%
23:00
18°
1012.3 hPa
77%
16.4°
1
Windvlaag: 3.7 m/s
78%
 06:35     20:34    Daglengte: 13:59 Vrijdag 19 Aug
00:00
17°
1012.5 hPa 3.3 mm
77%
16.3°
1
Windvlaag: 3.8 m/s
77%
01:00
17°
1012.5 hPa 3.0 mm
81%
16.0°
1
Windvlaag: 3.1 m/s
79%
02:00
17°
1012.4 hPa 3.5 mm
82%
16.1°
1
Windvlaag: 3.8 m/s
86%
03:00
17°
1012.3 hPa 3.4 mm
82%
16.1°
1
Windvlaag: 3.6 m/s
86%
04:00
17°
1012.3 hPa 3.4 mm
82%
16.0°
1
Windvlaag: 3.5 m/s
86%
05:00
17°
1013.0 hPa 3.8 mm
100%
15.2°
1
Windvlaag: 3.2 m/s
100%
06:00
16°
1013.4 hPa 4.1 mm
100%
15.2°
1
Windvlaag: 3.5 m/s
100%
07:00
16°
1014.0 hPa 4.6 mm
100%
15.5°
1
Windvlaag: 2.8 m/s
98%
08:00
16°
1014.7 hPa 6.7 mm
100%
16.3°
1
Windvlaag: 3.1 m/s
96%
09:00
17°
1015.2 hPa 6.5 mm
97%
16.0°
1
Windvlaag: 2.7 m/s
73%
10:00
18°
1015.7 hPa 10.7 mm
95%
16.4°
2
Windvlaag: 1 m/s
73%
11:00
18°
1016.4 hPa 6.8 mm
100%
17.1°
2
Windvlaag: 0.6 m/s
67%
12:00
19°
1016.6 hPa 13.3 mm
100%
18.2°
2
Windvlaag: -0.3 m/s
35%
13:00
20°
1016.6 hPa
95%
18.4°
2
Windvlaag: 0.3 m/s
61%
14:00
21°
1016.7 hPa 14.4 mm
46%
18.1°
2
Windvlaag: -0.7 m/s
81%
15:00
21°
1016.7 hPa 14.6 mm
87%
16.3°
2
Windvlaag: -0.7 m/s
47%
16:00
22°
1016.5 hPa
42%
16.8°
2
Windvlaag: 0.8 m/s
13%
17:00
22°
1016.2 hPa
88%
17.8°
2
Windvlaag: 3.6 m/s
25%
18:00
21°
1016.6 hPa 14.8 mm
98%
17.1°
2
Windvlaag: 3.6 m/s
50%
19:00
21°
1016.7 hPa
97%
17.6°
2
Windvlaag: 3.1 m/s
26%
20:00
20°
1017.1 hPa
90%
17.6°
2
Windvlaag: 3.9 m/s
21%
21:00
19°
1017.8 hPa
30%
16.5°
2
Windvlaag: 3.3 m/s
26%
22:00
18°
1018.5 hPa
23%
15.2°
2
Windvlaag: -0.4 m/s
31%
23:00
17°
1018.8 hPa 15.0 mm
21%
14.7°
2
Windvlaag: -0.8 m/s
57%
 06:36     20:32    Daglengte: 13:56 Zaterdag 20 Aug
00:00
15°
1018.9 hPa
21%
12.9°
2
Windvlaag: 6.7 m/s
8%
01:00
15°
1019.0 hPa
21%
12.1°
2
Windvlaag: 5.7 m/s
8%
02:00
15°
1019.0 hPa
21%
11.4°
2
Windvlaag: 4.2 m/s
16%
03:00
14°
1018.9 hPa
22%
11.2°
2
Windvlaag: 4.6 m/s
14%
04:00
14°
1018.9 hPa
21%
11.9°
2
Windvlaag: 4.6 m/s
59%
05:00
15°
1018.7 hPa
21%
12.7°
1
Windvlaag: 4.1 m/s
44%
06:00
15°
1018.7 hPa
25%
13.2°
1
Windvlaag: 4.8 m/s
78%
07:00
15°
1018.9 hPa
26%
13.1°
1
Windvlaag: 5.8 m/s
84%
08:00
15°
1019.4 hPa
29%
13.7°
1
Windvlaag: 6.1 m/s
74%
09:00
17°
1019.4 hPa
26%
15.4°
1
Windvlaag: 5.5 m/s
36%
10:00
19°
1019.2 hPa
39%
16.8°
1
Windvlaag: 4.3 m/s
20%
11:00
20°
1019.1 hPa
34%
17.3°
2
Windvlaag: 3.5 m/s
20%
12:00
21°
1018.7 hPa
35%
17.6°
2
Windvlaag: 3.7 m/s
38%
Temp/Neerslag /Baro Onweer/Dauwpunt
    Temp Baro Neerslag Dauwpunt Wind Bewolking  
 06:32     20:37    Daglengte: 14:05 Vandaag
14:00
26°
1010.9 hPa   13.9°
2
51%
17:00
25°
1010.5 hPa 4.4 mm 13.1°
2
59%
20:00
20°
1010.8 hPa 2.4 mm 14.1°
2
82%
23:00
18°
1013.4 hPa 11.3 mm 15.4°
2
72%
 06:33     20:35    Daglengte: 14:02 Morgen
02:00
17°
1012.9 hPa   15.4°
1
59%
05:00
17°
1011.6 hPa   15.1°
1
76%
08:00
17°
1011.9 hPa   14.9°
1
65%
11:00
20°
1012.3 hPa 2.2 mm 15.1°
1
64%
14:00
22°
1011.3 hPa 4.4 mm 14.1°
2
54%
17:00
22°
1010.3 hPa   13.9°
1
52%
20:00
19°
1011.1 hPa 11.2 mm 16.2°
1
81%
23:00
18°
1012.3 hPa 7.5 mm 16.4°
1
78%
 06:35     20:34    Daglengte: 13:59 Vrijdag 19 Aug
02:00
17°
1012.4 hPa 9.8 mm 16.1°
1
86%
05:00
17°
1013.0 hPa 10.5 mm 15.2°
1
100%
08:00
16°
1014.7 hPa 15.3 mm 16.3°
1
96%
11:00
18°
1016.4 hPa 23.9 mm 17.1°
2
67%
14:00
21°
1016.7 hPa 27.7 mm 18.1°
2
81%
17:00
22°
1016.2 hPa 14.6 mm 17.8°
2
25%
20:00
20°
1017.1 hPa 14.8 mm 17.6°
2
21%
23:00
17°
1018.8 hPa 15.0 mm 14.7°
2
57%
 06:36     20:32    Daglengte: 13:56 Zaterdag 20 Aug
02:00
15°
1019.0 hPa   11.4°
2
16%
05:00
15°
1018.7 hPa   12.7°
1
44%
08:00
15°
1019.4 hPa   13.7°
1
74%
11:00
20°
1019.1 hPa   17.3°
2
20%
14:00
22°
1018.4 hPa 49.3 mm 18.3°
2
20%
17:00
21°
1018.8 hPa 43.1 mm 16.5°
2
1%
20:00
18°
1019.7 hPa 44.4 mm 15.5°
0
1%
23:00
15°
1020.9 hPa 44.5 mm 13.9°
1
0%
 06:37     20:30    Daglengte: 13:53 Zondag 21 Aug
02:00
13°
1020.6 hPa 44.5 mm 12.6°
1
0%
05:00
12°
1019.7 hPa 44.5 mm 11.7°
1
0%
08:00
14°
1019.1 hPa 44.5 mm 12.7°
1
1%
11:00
21°
1017.7 hPa 44.5 mm 12.3°
1
1%
14:00
25°
1015.7 hPa 44.5 mm 9.9°
1
1%
17:00
26°
1014.2 hPa 44.5 mm 7.1°
1
1%
20:00
19°
1015.1 hPa 44.5 mm 10.2°
1
1%
23:00
17°
1015.8 hPa 44.5 mm 8.9°
1
1%
 06:38     20:28    Daglengte: 13:50 Maandag 22 Aug
02:00
15°
1015.4 hPa 44.5 mm 8.9°
1
1%
05:00
13°
1015.5 hPa 44.5 mm 9.2°
1
1%
08:00
15°
1015.6 hPa 44.5 mm 10.3°
1
1%
11:00
22°
1013.8 hPa 44.5 mm 11.0°
1
0%
14:00
26°
1012.7 hPa 44.5 mm 9.5°
1
0%
17:00
25°
1012.4 hPa 44.5 mm 8.5°
1
1%
20:00
20°
1013.2 hPa 44.5 mm 12.6°
1
1%
23:00
18°
1014.2 hPa 44.5 mm 10.6°
1
1%
 06:40     20:27    Daglengte: 13:47 Dinsdag 23 Aug
02:00
18°
1014.7 hPa 44.5 mm 10.3°
1
1%
05:00
16°
1015.2 hPa 44.6 mm 11.0°
0
1%
08:00
16°
1016.1 hPa 44.6 mm 12.1°
1
1%
11:00
19°
1016.4 hPa 44.6 mm 12.6°
1
1%
14:00
25°
1014.3 hPa 44.6 mm 12.7°
2
1%
17:00
26°
1013.4 hPa 44.7 mm 12.8°
1
0%
20:00
20°
1014.6 hPa 44.7 mm 15.8°
1
1%
23:00
18°
1016.1 hPa 44.7 mm 14.2°
1
1%
 06:41     20:25    Daglengte: 13:44 Woensdag 24 Aug
02:00
15°
1016.0 hPa 44.7 mm 14.3°
1
1%
05:00
16°
1015.7 hPa 44.7 mm 14.0°
1
1%
08:00
17°
1015.7 hPa 44.7 mm 14.1°
1
1%
11:00
24°
1014.6 hPa   15.0°
1
1%
14:00
29°
Voelt als: 28.2°
1013.0 hPa 89.4 mm 13.0°
1
1%
20:00
21°
1013.3 hPa 89.6 mm 16.3°
1
0%
 06:42     20:23    Daglengte: 13:41 Donderdag 25 Aug
02:00
17°
1016.8 hPa 95.7 mm 16.2°
1
1%
08:00
17°
1017.8 hPa 102.4 mm 16.5°
1
1%
14:00
27°
1016.6 hPa 103.2 mm 14.4°
1
0%
20:00
22°
1016.6 hPa 103.5 mm 16.1°
1
0%
 06:44     20:21    Daglengte: 13:37 Vrijdag 26 Aug
02:00
16°
1018.7 hPa 103.5 mm 14.2°
1
1%
08:00
17°
1018.8 hPa 103.5 mm 13.9°
1
0%
14:00
29°
Voelt als: 28.5°
1016.3 hPa 103.5 mm 13.6°
1
0%
20:00
21°
1017.2 hPa 103.5 mm 14.5°
2
1%
 06:45     20:19    Daglengte: 13:34 Zaterdag 27 Aug
02:00
17°
1018.2 hPa 103.6 mm 13.2°
1
1%
08:00
16°
1019.1 hPa 0.7 mm 13.7°
1
44%
14:00
27°
1017.4 hPa 0.2 mm 13.4°
2
34%
20:00
21°
1017.9 hPa 0.9 mm 14.8°
1
46%
 06:46     20:17    Daglengte: 13:31 Zondag 28 Aug
02:00
16°
1019.8 hPa 0.7 mm 12.9°
1
40%
08:00
16°
1020.1 hPa 0.4 mm 13.1°
1
35%
14:00
27°
Voelt als: 27.2°
1018.6 hPa 0.3 mm 12.6°
1
39%
20:00
21°
1018.9 hPa 1.5 mm 15.0°
1
40%
 06:48     20:15    Daglengte: 13:27 Maandag 29 Aug
02:00
16°
1020.5 hPa 0.9 mm 12.9°
1
39%
08:00
16°
1020.9 hPa 0.4 mm 13.0°
1
36%
14:00
28°
Voelt als: 27.4°
1019.3 hPa 0.2 mm 11.8°
1
34%
20:00
21°
1019.3 hPa 0.8 mm 14.1°
0
41%
 06:49     20:13    Daglengte: 13:24 Dinsdag 30 Aug
02:00
16°
1020.7 hPa 0.6 mm 12.9°
1
38%
08:00
16°
1020.8 hPa 0.4 mm 13.3°
1
52%
14:00
27°
Voelt als: 27.2°
1018.7 hPa 0.5 mm 12.9°
1
35%
20:00
21°
1018.5 hPa 1.1 mm 14.0°
1
54%
 06:50     20:11    Daglengte: 13:21 Woensdag 31 Aug
02:00
16°
1019.9 hPa 1.9 mm 12.5°
1
47%
08:00
16°
1019.4 hPa 0.7 mm 12.9°
1
45%
14:00
26°
1017.9 hPa 0.7 mm 13.4°
1
45%
20:00
19°
1018.0 hPa 1.9 mm 14.5°
0
57%
 06:51     20:10    Daglengte: 13:19 Donderdag 01 Sep
02:00
15°
1019.1 hPa 1.3 mm 13.0°
1
45%
08:00
15°
1018.9 hPa 0.2 mm 12.9°
1
38%
  CAPE Lifted Index Hail Supercell Tornado SRH 3km CL BTM PRES CL TOP PRES Swiss DWD icon SMHI TS
 06:32     20:37    Daglengte: 14:05 Vandaag
13:00 893 J/kg -5.0 K 0 % 0 % 0 % 0 m²/s² 0 0 -4.64 3
14:00 831 J/kg -4.0 K 0 % 0 % 0 % 0 m²/s² 0 0 -3.97 3
15:00 6 J/kg 0.1 K 0 % 0 % 0 % 0 m²/s² 0 0 1.27 3
16:00 294 J/kg -2.4 K 0 % 0 % 0 % 0 m²/s² 0 0 -1.5 3
17:00 118 J/kg -1.4 K 0 % 0 % 0 % 0 m²/s² 0 0 0.79 3
18:00 0 J/kg -0.6 K 0 % 0 % 0 % 0 m²/s² 0 0 3.96 80
19:00 0 J/kg 0.4 K 0 % 0 % 0 % 0 m²/s² 0 0 5.32 3
20:00 11 J/kg 0.7 K 0 % 0 % 0 % 0 m²/s² 0 0 5.11 3
21:00 0 J/kg 1.1 K 0 % 0 % 0 % 0 m²/s² 0 0 4.88 95
22:00 0 J/kg 1.3 K 0 % 0 % 0 % 0 m²/s² 0 0 3.64 81
23:00 0 J/kg 1.2 K 0 % 0 % 0 % 0 m²/s² 0 0 2.37 61
 06:33     20:35    Daglengte: 14:02 Morgen
00:00 0 J/kg 1.4 K 0 % 0 % 0 % 0 m²/s² 0 0 2.96 3
01:00 0 J/kg 2.6 K 0 % 0 % 0 % 0 m²/s² 0 0 3.98 3
02:00 0 J/kg 3.2 K 0 % 0 % 0 % 0 m²/s² 0 0 4.82 3
03:00 0 J/kg 4.0 K 0 % 0 % 0 % 0 m²/s² 0 0 5.32 3
04:00 0 J/kg 3.4 K 0 % 0 % 0 % 0 m²/s² 0 0 4.3 3
05:00 0 J/kg 2.5 K 0 % 0 % 0 % 0 m²/s² 0 0 3.67 3
06:00 0 J/kg 1.4 K 0 % 0 % 0 % 0 m²/s² 0 0 2.96 45
07:00 0 J/kg 1.4 K 0 % 0 % 0 % 0 m²/s² 0 0 3.32 45
08:00 0 J/kg 1.3 K 0 % 0 % 0 % 0 m²/s² 0 0 3.22 3
09:00 0 J/kg 1.2 K 0 % 0 % 0 % 0 m²/s² 0 0 3.3 3
10:00 0 J/kg 0.9 K 0 % 0 % 0 % 0 m²/s² 0 0 2.88 80
11:00 0 J/kg 0.0 K 0 % 0 % 0 % 0 m²/s² 0 0 1.86 3
12:00 75 J/kg -0.8 K 0 % 0 % 0 % 0 m²/s² 0 0 1.3 80
13:00 93 J/kg -0.7 K 0 % 0 % 0 % 0 m²/s² 0 0 1.76 80
14:00 141 J/kg -0.8 K 0 % 0 % 0 % 0 m²/s² 0 0 1.9 3
15:00 285 J/kg -1.1 K 0 % 0 % 0 % 0 m²/s² 0 0 1.93 3
16:00 527 J/kg -2.9 K 0 % 0 % 0 % 0 m²/s² 0 0 -0.11 3
17:00 360 J/kg -2.1 K 0 % 0 % 0 % 0 m²/s² 0 0 1.29 3
18:00 367 J/kg -1.4 K 0 % 0 % 0 % 0 m²/s² 0 0 1 95
19:00 279 J/kg -1.0 K 0 % 0 % 0 % 0 m²/s² 0 0 0.8 81
20:00 458 J/kg -2.5 K 0 % 0 % 0 % 0 m²/s² 0 0 -0.82 3
21:00 330 J/kg -2.4 K 0 % 0 % 0 % 0 m²/s² 0 0 -0.66 3
22:00 358 J/kg -2.8 K 0 % 0 % 0 % 0 m²/s² 0 0 -1.81 3
23:00 307 J/kg -2.5 K 0 % 0 % 0 % 0 m²/s² 0 0 -1.6 3
 06:35     20:34    Daglengte: 13:59 Vrijdag 19 Aug
00:00 136 J/kg -1.8 K 0 % 0 % 0 % 0 m²/s² 0 0 -0.54 3
01:00 156 J/kg -2.4 K 0 % 0 % 0 % 0 m²/s² 0 0 -1.14 80
02:00 183 J/kg -2.4 K 0 % 0 % 0 % 0 m²/s² 0 0 -1.5 80
03:00 146 J/kg -2.4 K 0 % 0 % 0 % 0 m²/s² 0 0 -1.29 80
04:00 170 J/kg -2.2 K 0 % 0 % 0 % 0 m²/s² 0 0 -1.54 80
05:00 265 J/kg -2.6 K 0 % 0 % 0 % 0 m²/s² 0 0 -2.6 80
06:00 165 J/kg -1.7 K 0 % 0 % 0 % 0 m²/s² 0 0 -1.31 80
07:00 96 J/kg -1.5 K 0 % 0 % 0 % 0 m²/s² 0 0 -1.47 63
08:00 69 J/kg 0.1 K 0 % 0 % 0 % 0 m²/s² 0 0 0.19 63
09:00 42 J/kg -0.4 K 0 % 0 % 0 % 0 m²/s² 0 0 -0.4 61
10:00 52 J/kg -0.4 K 0 % 0 % 0 % 0 m²/s² 0 0 -0.1 3
11:00 156 J/kg 0.0 K 0 % 0 % 0 % 0 m²/s² 0 0 0 3
12:00 155 J/kg 0.7 K 0 % 0 % 0 % 0 m²/s² 0 0 0.79 2
13:00 183 J/kg 1.0 K 0 % 0 % 0 % 0 m²/s² 0 0 1 3
14:00 70 J/kg 2.4 K 0 % 0 % 0 % 0 m²/s² 0 0 2.4 3
15:00 21 J/kg 1.9 K 0 % 0 % 0 % 0 m²/s² 0 0 2.26 2
16:00 64 J/kg 0.0 K 0 % 0 % 0 % 0 m²/s² 0 0 0.87 2
17:00 192 J/kg -1.6 K 0 % 0 % 0 % 0 m²/s² 0 0 -1.39 2
18:00 354 J/kg -2.0 K 0 % 0 % 0 % 0 m²/s² 0 0 -1.73 80
19:00 461 J/kg -2.0 K 0 % 0 % 0 % 0 m²/s² 0 0 -1.13 2
20:00 426 J/kg -1.4 K 0 % 0 % 0 % 0 m²/s² 0 0 -0.29 2
21:00 259 J/kg -1.0 K 0 % 0 % 0 % 0 m²/s² 0 0 0.26 1
22:00 208 J/kg -0.7 K 0 % 0 % 0 % 0 m²/s² 0 0 0.83 0
23:00 156 J/kg -0.2 K 0 % 0 % 0 % 0 m²/s² 0 0 1.96 0
 06:36     20:32    Daglengte: 13:56 Zaterdag 20 Aug
00:00 88 J/kg 1.0 K 0 % 0 % 0 % 0 m²/s² 0 0 2.98 1
01:00 52 J/kg 1.3 K 0 % 0 % 0 % 0 m²/s² 0 0 2.62 2
02:00 86 J/kg 0.8 K 0 % 0 % 0 % 0 m²/s² 0 0 1.61 1
03:00 56 J/kg 0.3 K 0 % 0 % 0 % 0 m²/s² 0 0 0.93 2
04:00 56 J/kg -0.3 K 0 % 0 % 0 % 0 m²/s² 0 0 0.06 3
05:00 62 J/kg -1.5 K 0 % 0 % 0 % 0 m²/s² 0 0 -1.38 3
06:00 60 J/kg -1.5 K 0 % 0 % 0 % 0 m²/s² 0 0 -0.93 3
07:00 7 J/kg -1.3 K 0 % 0 % 0 % 0 m²/s² 0 0 -0.1 3
08:00 35 J/kg -1.4 K 0 % 0 % 0 % 0 m²/s² 0 0 -0.08 2
09:00 194 J/kg -1.4 K 0 % 0 % 0 % 0 m²/s² 0 0 -0.14 3
10:00 509 J/kg -1.5 K 0 % 0 % 0 % 0 m²/s² 0 0 0.03 2
11:00 738 J/kg -2.4 K 0 % 0 % 0 % 0 m²/s² 0 0 -0.45 2
12:00 1002 J/kg -3.3 K 0 % 0 % 0 % 0 m²/s² 0 0 -1.47 2
Temp Baro Wind Neerslag
  EWN Forecast EWN WRFDA DWD ICON FMI HIRLAM MET Norway GFS
 06:32     20:37    Daglengte: 14:05 Vandaag
14:00 26.2° 1010.9 hPa 1.6 m/s 0.0 mm 26.0° 1010.0 hPa 1.0 m/s 0.4 mm 26.6° 1011.1 hPa 0.7 m/s -2.0 mm 27.3° 1009.9 hPa 1.7 m/s 0.0 mm 27.9° 1010.4 hPa 1.5 m/s
17:00 24.8° 1010.5 hPa 1.7 m/s 4.4 mm 20.9° 1010.2 hPa 2.5 m/s 28.8 mm 25.3° 1010.8 hPa 1.6 m/s 0.3 mm 27.8° 1008.9 hPa 2.5 m/s 0.0 mm 25.7° 1009.0 hPa 4.8 m/s
20:00 20.4° 1010.8 hPa 2.0 m/s 2.4 mm 19.1° 1010.2 hPa 2.8 m/s 29.0 mm 20.1° 1012.4 hPa 1.2 m/s 1.7 mm 24.2° 1010.2 hPa 1.6 m/s 0.0 mm 19.4° 1010.4 hPa 0.9 m/s
23:00 18.5° 1013.4 hPa 1.6 m/s 11.3 mm 18.7° 1011.8 hPa 2.8 m/s 29.0 mm 18.2° 1014.1 hPa 1.2 m/s 5.2 mm 20.7° 1011.6 hPa 1.7 m/s 0.0 mm 15.7° 1014.4 hPa 1.7 m/s
 06:33     20:35    Daglengte: 14:02 Morgen
02:00 17.3° 1012.9 hPa 1.0 m/s 0.0 mm 15.8° 1010.4 hPa 2.1 m/s 29.0 mm 17.4° 1013.5 hPa 0.6 m/s 0.0 mm 19.0° 1010.5 hPa 1.5 m/s 0.0 mm 15.3° 1014.5 hPa 1.7 m/s
05:00 16.8° 1011.6 hPa 1.1 m/s 0.0 mm 15.4° 1010.8 hPa 0.8 m/s 29.0 mm 16.8° 1012.9 hPa 0.6 m/s 0.2 mm 18.4° 1009.2 hPa 1.5 m/s 0.0 mm 15.1° 1013.6 hPa 1.1 m/s
08:00 17.4° 1011.9 hPa 1.1 m/s 0.0 mm 16.4° 1011.0 hPa 0.9 m/s 29.0 mm 17.3° 1012.7 hPa 0.9 m/s 0.1 mm 19.9° 1009.2 hPa 1.6 m/s 0.0 mm 15.4° 1013.6 hPa 0.4 m/s
11:00 19.7° 1012.3 hPa 1.4 m/s 2.2 mm 21.7° 1011.2 hPa 1.4 m/s 29.0 mm 18.9° 1013.0 hPa 1.3 m/s 0.9 mm 22.8° 1009.4 hPa 2.7 m/s 0.0 mm 20.0° 1013.5 hPa 1.2 m/s
14:00 21.6° 1011.3 hPa 1.6 m/s 4.4 mm 24.8° 1008.4 hPa 2.4 m/s 29.0 mm 20.3° 1012.7 hPa 1.5 m/s 1.1 mm 24.6° 1008.0 hPa 1.8 m/s 0.0 mm 23.3° 1011.6 hPa 1.6 m/s
17:00 22.4° 1010.3 hPa 1.3 m/s 0.0 mm 25.3° 1007.3 hPa 4.1 m/s 29.0 mm 21.3° 1011.3 hPa 0.4 m/s 0.2 mm 25.7° 1006.9 hPa 0.9 m/s 0.0 mm 21.7° 1010.6 hPa 1.4 m/s
20:00 19.3° 1011.1 hPa 1.3 m/s 11.2 mm 22.0° 1008.4 hPa 2.0 m/s 29.6 mm 18.6° 1012.4 hPa 0.9 m/s 5.2 mm 21.9° 1007.6 hPa 1.2 m/s 0.0 mm 17.9° 1011.1 hPa 0.6 m/s
23:00 17.9° 1012.3 hPa 1.2 m/s 7.5 mm 18.0° 1010.7 hPa 4.2 m/s 31.8 mm 17.4° 1013.0 hPa 0.7 m/s 0.4 mm 20.5° 1008.4 hPa 0.9 m/s 0.0 mm 16.1° 1013.2 hPa 1.6 m/s
 06:35     20:34    Daglengte: 13:59 Vrijdag 19 Aug
02:00 17.1° 1012.4 hPa 1.2 m/s 9.8 mm 17.0° 1010.6 hPa 2.0 m/s 34.7 mm 16.8° 1013.3 hPa 0.9 m/s 1.1 mm 19.1° 1008.1 hPa 1.0 m/s 0.0 mm 15.5° 1013.6 hPa 1.4 m/s
05:00 16.6° 1013.0 hPa 0.9 m/s 10.5 mm 16.7° 1010.6 hPa 1.9 m/s 36.4 mm 16.7° 1013.1 hPa 0.8 m/s 2.8 mm 14.7° 1013.3 hPa 1.3 m/s
08:00 16.3° 1014.7 hPa 1.3 m/s 15.3 mm 15.3° 1011.8 hPa 2.0 m/s 54.3 mm 16.4° 1014.9 hPa 1.3 m/s 7.4 mm 14.9° 1014.9 hPa 1.7 m/s
11:00 18.3° 1016.4 hPa 1.6 m/s 23.9 mm 16.1° 1015.0 hPa 1.6 m/s 95.6 mm 18.5° 1016.4 hPa 1.7 m/s 0.5 mm 17.0° 1016.3 hPa 2.0 m/s
14:00 20.7° 1016.7 hPa 2.1 m/s 27.7 mm 16.5° 1015.7 hPa 3.1 m/s 125.2 mm 21.1° 1016.7 hPa 2.1 m/s 0.1 mm 19.7° 1016.5 hPa 1.4 m/s
17:00 22.2° 1016.2 hPa 1.7 m/s 14.6 mm 19.6° 1015.3 hPa 1.9 m/s 128.9 mm 22.5° 1016.2 hPa 1.8 m/s 0.1 mm 20.6° 1016.6 hPa 1.2 m/s
20:00 20.0° 1017.1 hPa 1.6 m/s 14.8 mm 19.1° 1015.7 hPa 2.5 m/s 131.4 mm 20.2° 1017.4 hPa 0.7 m/s 0.6 mm 17.1° 1017.9 hPa 1.6 m/s
23:00 16.7° 1018.8 hPa 1.5 m/s 15.0 mm 16.7° 1017.2 hPa 3.1 m/s 134.1 mm 15.9° 1019.0 hPa 1.3 m/s 0.0 mm 15.4° 1019.6 hPa 1.5 m/s
 06:36     20:32    Daglengte: 13:56 Zaterdag 20 Aug
02:00 14.8° 1019.0 hPa 1.8 m/s 0.0 mm 17.7° 1018.1 hPa 3.3 m/s 134.1 mm 14.1° 1019.2 hPa 1.4 m/s 0.0 mm 15.4° 1019.3 hPa 1.1 m/s
05:00 14.7° 1018.7 hPa 1.3 m/s 0.0 mm 16.3° 1018.0 hPa 2.5 m/s 134.3 mm 14.3° 1018.9 hPa 1.0 m/s 0.0 mm 14.6° 1019.3 hPa 1.0 m/s
08:00 15.4° 1019.4 hPa 1.3 m/s 0.0 mm 16.3° 1018.7 hPa 2.7 m/s 138.8 mm 15.2° 1019.6 hPa 1.0 m/s 0.0 mm 15.6° 1019.9 hPa 1.1 m/s
11:00 20.2° 1019.1 hPa 1.6 m/s 0.0 mm 18.9° 1018.9 hPa 2.2 m/s 141.1 mm 20.6° 1019.1 hPa 1.4 m/s 0.0 mm 21.5° 1019.0 hPa 1.3 m/s
14:00 21.7° 1018.4 hPa 2.1 m/s 49.3 mm 20.0° 1018.6 hPa 1.1 m/s 147.8 mm 22.1° 1018.3 hPa 2.4 m/s 0.1 mm 25.0° 1018.0 hPa 2.3 m/s
17:00 21.0° 1018.8 hPa 1.7 m/s 43.1 mm 21.0° 1018.8 hPa 1.7 m/s 43.1 mm
20:00 18.3° 1019.7 hPa 0.4 m/s 44.4 mm 18.3° 1019.7 hPa 0.4 m/s 44.4 mm
23:00 14.9° 1020.9 hPa 0.9 m/s 44.5 mm 14.9° 1020.9 hPa 0.9 m/s 44.5 mm
 06:37     20:30    Daglengte: 13:53 Zondag 21 Aug
02:00 13.4° 1020.6 hPa 0.8 m/s 44.5 mm 13.4° 1020.6 hPa 0.8 m/s 44.5 mm
05:00 12.3° 1019.7 hPa 0.9 m/s 44.5 mm 12.3° 1019.7 hPa 0.9 m/s 44.5 mm
08:00 13.8° 1019.1 hPa 0.6 m/s 44.5 mm 13.8° 1019.1 hPa 0.6 m/s 44.5 mm
11:00 20.8° 1017.7 hPa 1.0 m/s 44.5 mm 20.7° 1017.7 hPa 1.0 m/s 44.5 mm
14:00 24.9° 1015.7 hPa 1.3 m/s 44.5 mm 24.9° 1015.7 hPa 1.3 m/s 44.5 mm
17:00 25.6° 1014.2 hPa 0.7 m/s 44.5 mm 25.6° 1014.2 hPa 0.7 m/s 44.5 mm
20:00 19.2° 1015.1 hPa 0.6 m/s 44.5 mm 19.2° 1015.1 hPa 0.6 m/s 44.5 mm
23:00 16.9° 1015.8 hPa 1.3 m/s 44.5 mm 16.9° 1015.8 hPa 1.3 m/s 44.5 mm
 06:38     20:28    Daglengte: 13:50 Maandag 22 Aug
02:00 14.7° 1015.4 hPa 1.5 m/s 44.5 mm 14.7° 1015.4 hPa 1.5 m/s 44.5 mm
05:00 12.9° 1015.5 hPa 1.0 m/s 44.5 mm 12.9° 1015.5 hPa 1.0 m/s 44.5 mm
08:00 14.6° 1015.6 hPa 0.9 m/s 44.5 mm 14.6° 1015.6 hPa 0.9 m/s 44.5 mm
11:00 22.2° 1013.8 hPa 1.3 m/s 44.5 mm 22.2° 1013.8 hPa 1.3 m/s 44.5 mm
14:00 25.8° 1012.7 hPa 1.4 m/s 44.5 mm 25.8° 1012.7 hPa 1.4 m/s 44.5 mm
17:00 25.2° 1012.4 hPa 0.7 m/s 44.5 mm 25.2° 1012.4 hPa 0.7 m/s 44.5 mm
20:00 19.7° 1013.2 hPa 0.8 m/s 44.5 mm 19.7° 1013.2 hPa 0.8 m/s 44.5 mm
23:00 18.4° 1014.2 hPa 0.8 m/s 44.5 mm 18.4° 1014.2 hPa 0.8 m/s 44.5 mm
 06:40     20:27    Daglengte: 13:47 Dinsdag 23 Aug
02:00 17.6° 1014.7 hPa 0.8 m/s 44.5 mm 17.6° 1014.7 hPa 0.8 m/s 44.5 mm
05:00 16.2° 1015.2 hPa 0.2 m/s 44.6 mm 16.2° 1015.2 hPa 0.2 m/s 44.6 mm
08:00 16.1° 1016.1 hPa 0.5 m/s 44.6 mm 16.1° 1016.1 hPa 0.5 m/s 44.6 mm
11:00 18.8° 1016.4 hPa 0.8 m/s 44.6 mm 18.8° 1016.4 hPa 0.8 m/s 44.6 mm
14:00 24.7° 1014.3 hPa 1.6 m/s 44.6 mm 24.7° 1014.3 hPa 1.6 m/s 44.6 mm
17:00 25.7° 1013.4 hPa 1.5 m/s 44.7 mm 25.7° 1013.4 hPa 1.5 m/s 44.7 mm
20:00 20.3° 1014.6 hPa 1.0 m/s 44.7 mm 20.3° 1014.6 hPa 1.0 m/s 44.7 mm
23:00 17.7° 1016.1 hPa 1.2 m/s 44.7 mm 17.7° 1016.1 hPa 1.2 m/s 44.7 mm
 06:41     20:25    Daglengte: 13:44 Woensdag 24 Aug
02:00 15.4° 1016.0 hPa 1.1 m/s 44.7 mm 15.4° 1016.0 hPa 1.1 m/s 44.7 mm
05:00 15.5° 1015.7 hPa 1.0 m/s 44.7 mm 15.5° 1015.7 hPa 1.0 m/s 44.7 mm
08:00 16.8° 1015.7 hPa 0.6 m/s 44.7 mm 16.8° 1015.7 hPa 0.6 m/s 44.7 mm
11:00 23.9° 1014.6 hPa 0.7 m/s 44.7 mm 23.9° 1014.6 hPa 0.7 m/s 44.7 mm
14:00 28.8° 1013.0 hPa 0.8 m/s 44.7 mm 28.8° 1013.0 hPa 0.8 m/s 44.7 mm
20:00 20.9° 1013.3 hPa 0.7 m/s 44.9 mm 20.9° 1013.3 hPa 0.7 m/s 44.9 mm
 06:42     20:23    Daglengte: 13:41 Donderdag 25 Aug
02:00 16.6° 1016.8 hPa 1.4 m/s 49.8 mm 16.6° 1016.8 hPa 1.4 m/s 49.8 mm
08:00 17.2° 1017.8 hPa 0.9 m/s 51.6 mm 17.2° 1017.8 hPa 0.9 m/s 51.6 mm
14:00 27.4° 1016.6 hPa 1.3 m/s 51.6 mm 27.4° 1016.6 hPa 1.3 m/s 51.6 mm
20:00 22.0° 1016.6 hPa 1.3 m/s 51.8 mm 22.0° 1016.6 hPa 1.3 m/s 51.8 mm
 06:44     20:21    Daglengte: 13:37 Vrijdag 26 Aug
02:00 16.2° 1018.7 hPa 1.2 m/s 51.8 mm 16.2° 1018.7 hPa 1.2 m/s 51.8 mm
08:00 16.8° 1018.8 hPa 0.5 m/s 51.8 mm 16.8° 1018.8 hPa 0.5 m/s 51.8 mm
14:00 29.0° 1016.3 hPa 1.3 m/s 51.8 mm 29.0° 1016.3 hPa 1.3 m/s 51.8 mm
20:00 20.8° 1017.2 hPa 1.7 m/s 51.8 mm 20.8° 1017.2 hPa 1.7 m/s 51.8 mm
 06:45     20:19    Daglengte: 13:34 Zaterdag 27 Aug
02:00 17.0° 1018.2 hPa 1.2 m/s 51.8 mm 17.0° 1018.2 hPa 1.2 m/s 51.8 mm
08:00 16.4° 1019.1 hPa 0.9 m/s 0.7 mm
14:00 27.1° 1017.4 hPa 1.6 m/s 0.2 mm
20:00 21.0° 1017.9 hPa 1.0 m/s 0.9 mm
 06:46     20:17    Daglengte: 13:31 Zondag 28 Aug
02:00 15.9° 1019.8 hPa 1.2 m/s 0.7 mm
08:00 16.2° 1020.1 hPa 0.9 m/s 0.4 mm
14:00 27.5° 1018.6 hPa 1.4 m/s 0.3 mm
20:00 20.8° 1018.9 hPa 0.7 m/s 1.5 mm
 06:48     20:15    Daglengte: 13:27 Maandag 29 Aug
02:00 16.0° 1020.5 hPa 1.4 m/s 0.9 mm
08:00 16.2° 1020.9 hPa 1.2 m/s 0.4 mm
14:00 27.9° 1019.3 hPa 1.4 m/s 0.2 mm
20:00 20.9° 1019.3 hPa 0.4 m/s 0.8 mm
 06:49     20:13    Daglengte: 13:24 Dinsdag 30 Aug
02:00 16.3° 1020.7 hPa 1.3 m/s 0.6 mm
08:00 16.2° 1020.8 hPa 1.2 m/s 0.4 mm
14:00 27.4° 1018.7 hPa 1.4 m/s 0.5 mm
20:00 20.7° 1018.5 hPa 0.5 m/s 1.1 mm